• în România
  • Lista ţărilor
  • Pe 7 zile
  • Temperatura apei
  • Hartă satelitară
  • Meteo pe hartă
  • Widget-uri
  • user-avatar
    Intrare

    Meteo pe oră la Stepanakert

    Astăzi, 20 Septembrie, Miercuri

    Timp Temperatura Precipitaţii Vânt Presiune Umiditate
    00:00 +20°C° 0 mm 2 m/s 695 mmHg 46%
    01:00 +21°C° 0 mm 1 m/s 695 mmHg 47%
    02:00 +21°C° 0 mm 1 m/s 695 mmHg 47%
    03:00 +20°C° 0 mm 1 m/s 695 mmHg 48%
    04:00 +20°C° 0 mm 1 m/s 695 mmHg 48%
    05:00 +20°C° 0 mm 1 m/s 695 mmHg 48%
    06:00 +20°C° 0 mm 1 m/s 695 mmHg 48%
    07:00 +21°C° 0 mm 2 m/s 695 mmHg 44%
    08:00 +24°C° 0 mm 2 m/s 695 mmHg 41%
    09:00 +26°C° 0 mm 2 m/s 696 mmHg 38%
    10:00 +28°C° 0 mm 2 m/s 696 mmHg 35%
    11:00 +29°C° 0 mm 2 m/s 695 mmHg 32%
    12:00 +30°C° 0 mm 3 m/s 695 mmHg 30%
    13:00 +30°C° 0 mm 3 m/s 695 mmHg 29%
    14:00 +30°C° 0 mm 3 m/s 695 mmHg 29%
    15:00 +31°C° 0 mm 3 m/s 694 mmHg 29%
    16:00 +29°C° 0 mm 2 m/s 694 mmHg 34%
    17:00 +27°C° 0 mm 2 m/s 694 mmHg 39%
    18:00 +25°C° 0 mm 1 m/s 693 mmHg 44%
    19:00 +25°C° 0 mm 1 m/s 694 mmHg 46%
    20:00 +24°C° 0 mm 1 m/s 694 mmHg 48%
    21:00 +23°C° 0 mm 1 m/s 694 mmHg 50%
    22:00 +23°C° 0 mm 1 m/s 694 mmHg 50%
    23:00 +22°C° 0 mm 1 m/s 694 mmHg 50%

    Mâine, 21 Septembrie, Joi

    Timp Temperatura Precipitaţii Vânt Presiune Umiditate
    00:00 +22°C° 0 mm 1 m/s 694 mmHg 50%
    01:00 +22°C° 0 mm 1 m/s 694 mmHg 50%
    02:00 +21°C° 0 mm 1 m/s 694 mmHg 51%
    03:00 +21°C° 0 mm 1 m/s 694 mmHg 51%
    04:00 +21°C° 0 mm 1 m/s 694 mmHg 50%
    05:00 +21°C° 0 mm 1 m/s 694 mmHg 50%
    06:00 +20°C° 0 mm 1 m/s 694 mmHg 49%
    07:00 +23°C° 0 mm 1 m/s 694 mmHg 45%
    08:00 +25°C° 0 mm 2 m/s 695 mmHg 40%
    09:00 +27°C° 0 mm 2 m/s 695 mmHg 35%
    10:00 +28°C° 0 mm 2 m/s 695 mmHg 33%
    11:00 +30°C° 0 mm 2 m/s 695 mmHg 30%
    12:00 +31°C° 0 mm 3 m/s 694 mmHg 27%
    13:00 +31°C° 0 mm 3 m/s 694 mmHg 26%
    14:00 +31°C° 0 mm 3 m/s 694 mmHg 26%
    15:00 +31°C° 0 mm 3 m/s 693 mmHg 26%
    16:00 +29°C° 0 mm 2 m/s 693 mmHg 30%
    17:00 +28°C° 0 mm 2 m/s 693 mmHg 34%
    18:00 +26°C° 0 mm 1 m/s 692 mmHg 38%
    19:00 +25°C° 0 mm 1 m/s 693 mmHg 41%
    20:00 +24°C° 0 mm 1 m/s 693 mmHg 43%
    21:00 +23°C° 0 mm 1 m/s 693 mmHg 46%
    22:00 +23°C° 0 mm 1 m/s 693 mmHg 48%
    23:00 +22°C° 0 mm 1 m/s 693 mmHg 49%

    Poimâine, 22 Septembrie, Vineri

    Timp Temperatura Precipitaţii Vânt Presiune Umiditate
    00:00 +21°C° 0 mm 1 m/s 693 mmHg 51%
    01:00 +21°C° 0 mm 1 m/s 693 mmHg 52%
    02:00 +21°C° 0 mm 1 m/s 693 mmHg 53%
    03:00 +20°C° 0 mm 1 m/s 693 mmHg 54%
    04:00 +20°C° 0 mm 1 m/s 693 mmHg 54%
    05:00 +20°C° 0 mm 1 m/s 693 mmHg 55%
    06:00 +20°C° 0 mm 1 m/s 693 mmHg 56%
    07:00 +22°C° 0 mm 1 m/s 693 mmHg 50%
    08:00 +24°C° 0 mm 2 m/s 693 mmHg 43%
    09:00 +26°C° 0 mm 2 m/s 694 mmHg 37%
    10:00 +27°C° 0 mm 2 m/s 693 mmHg 34%
    11:00 +28°C° 0 mm 3 m/s 693 mmHg 31%
    12:00 +30°C° 0 mm 3 m/s 693 mmHg 28%
    13:00 +30°C° 0 mm 3 m/s 692 mmHg 28%
    14:00 +30°C° 0 mm 3 m/s 692 mmHg 28%
    15:00 +30°C° 0 mm 3 m/s 691 mmHg 29%
    16:00 +28°C° 0 mm 3 m/s 691 mmHg 33%
    17:00 +27°C° 0 mm 2 m/s 691 mmHg 38%
    18:00 +25°C° 0 mm 2 m/s 691 mmHg 42%
    19:00 +24°C° 0 mm 2 m/s 691 mmHg 45%
    20:00 +23°C° 0 mm 2 m/s 691 mmHg 48%
    21:00 +21°C° 0 mm 2 m/s 692 mmHg 51%
    22:00 +21°C° 0 mm 2 m/s 692 mmHg 52%
    23:00 +21°C° 0 mm 1 m/s 692 mmHg 54%

    23 Septembrie, Sâmbătă

    Timp Temperatura Precipitaţii Vânt Presiune Umiditate
    00:00 +21°C° 0 mm 1 m/s 692 mmHg 55%
    01:00 +20°C° 0 mm 1 m/s 692 mmHg 56%
    02:00 +20°C° 0 mm 1 m/s 692 mmHg 56%
    03:00 +20°C° 0 mm 1 m/s 692 mmHg 56%
    04:00 +19°C° 0 mm 1 m/s 692 mmHg 56%
    05:00 +19°C° 0 mm 1 m/s 693 mmHg 56%
    06:00 +19°C° 0 mm 1 m/s 693 mmHg 56%
    07:00 +21°C° 0 mm 1 m/s 693 mmHg 49%
    08:00 +23°C° 0 mm 2 m/s 694 mmHg 42%
    09:00 +25°C° 0 mm 2 m/s 694 mmHg 36%
    10:00 +27°C° 0 mm 2 m/s 694 mmHg 34%
    11:00 +28°C° 0 mm 2 m/s 694 mmHg 31%
    12:00 +29°C° 0 mm 3 m/s 694 mmHg 29%
    13:00 +29°C° 0 mm 3 m/s 694 mmHg 29%
    14:00 +29°C° 0 mm 3 m/s 694 mmHg 29%
    15:00 +29°C° 0 mm 3 m/s 694 mmHg 29%
    16:00 +28°C° 0 mm 2 m/s 694 mmHg 33%
    17:00 +26°C° 0 mm 2 m/s 694 mmHg 38%
    18:00 +24°C° 0 mm 1 m/s 694 mmHg 43%
    19:00 +24°C° 0 mm 1 m/s 695 mmHg 45%
    20:00 +23°C° 0 mm 1 m/s 695 mmHg 48%
    21:00 +22°C° 0 mm 1 m/s 695 mmHg 50%
    22:00 +21°C° 0 mm 2 m/s 695 mmHg 52%
    23:00 +20°C° 0 mm 2 m/s 695 mmHg 54%

    24 Septembrie, Duminică

    Timp Temperatura Precipitaţii Vânt Presiune Umiditate
    00:00 +20°C° 0 mm 2 m/s 695 mmHg 56%
    01:00 +20°C° 0 mm 1 m/s 695 mmHg 57%
    02:00 +20°C° 0 mm 1 m/s 695 mmHg 57%
    03:00 +20°C° 0 mm 1 m/s 695 mmHg 58%
    04:00 +19°C° 0 mm 1 m/s 696 mmHg 59%
    05:00 +19°C° 0 mm 1 m/s 696 mmHg 60%
    06:00 +19°C° 0 mm 1 m/s 696 mmHg 60%
    07:00 +20°C° 0 mm 2 m/s 696 mmHg 53%
    08:00 +23°C° 0 mm 2 m/s 697 mmHg 45%
    09:00 +25°C° 0 mm 2 m/s 697 mmHg 37%
    10:00 +26°C° 0 mm 2 m/s 697 mmHg 34%
    11:00 +27°C° 0 mm 3 m/s 697 mmHg 30%
    12:00 +29°C° 0 mm 3 m/s 697 mmHg 26%
    13:00 +29°C° 0 mm 3 m/s 697 mmHg 26%
    14:00 +29°C° 0 mm 3 m/s 696 mmHg 26%
    15:00 +29°C° 0 mm 4 m/s 696 mmHg 26%
    16:00 +27°C° 0 mm 3 m/s 696 mmHg 30%
    17:00 +26°C° 0 mm 3 m/s 696 mmHg 34%
    18:00 +24°C° 0 mm 3 m/s 696 mmHg 39%
    19:00 +23°C° 0 mm 2 m/s 696 mmHg 44%
    20:00 +21°C° 0 mm 2 m/s 696 mmHg 49%
    21:00 +20°C° 0 mm 2 m/s 697 mmHg 54%
    22:00 +19°C° 0 mm 2 m/s 696 mmHg 56%
    23:00 +19°C° 0 mm 2 m/s 696 mmHg 58%

    25 Septembrie, Luni

    Timp Temperatura Precipitaţii Vânt Presiune Umiditate
    00:00 +18°C° 0 mm 2 m/s 696 mmHg 60%
    01:00 +19°C° 0 mm 1 m/s 696 mmHg 59%
    02:00 +18°C° 0 mm 1 m/s 696 mmHg 59%
    03:00 +18°C° 0 mm 1 m/s 696 mmHg 58%
    04:00 +18°C° 0 mm 1 m/s 696 mmHg 57%
    05:00 +18°C° 0 mm 1 m/s 696 mmHg 57%
    06:00 +16°C° 0 mm 1 m/s 696 mmHg 56%
    07:00 +20°C° 0 mm 1 m/s 697 mmHg 51%
    08:00 +21°C° 0 mm 2 m/s 697 mmHg 46%
    09:00 +24°C° 0 mm 2 m/s 698 mmHg 41%
    10:00 +25°C° 0 mm 2 m/s 697 mmHg 38%
    11:00 +26°C° 0 mm 3 m/s 697 mmHg 36%
    12:00 +27°C° 0 mm 3 m/s 697 mmHg 33%
    13:00 +27°C° 0 mm 3 m/s 697 mmHg 33%
    14:00 +28°C° 0 mm 3 m/s 697 mmHg 33%
    15:00 +28°C° 0 mm 3 m/s 697 mmHg 34%
    16:00 +26°C° 0 mm 3 m/s 697 mmHg 39%
    17:00 +25°C° 0 mm 3 m/s 697 mmHg 44%
    18:00 +22°C° 0 mm 3 m/s 697 mmHg 49%
    19:00 +21°C° 0 mm 2 m/s 697 mmHg 53%
    20:00 +20°C° 0 mm 2 m/s 697 mmHg 57%
    21:00 +19°C° 0 mm 2 m/s 697 mmHg 62%
    22:00 +18°C° 0 mm 2 m/s 697 mmHg 64%
    23:00 +19°C° 0 mm 1 m/s 697 mmHg 65%
    Arată mai mult